Location: Sungai Ketit
(2.6833°N, 113.2333°E)
Time: 20:44:53
(UTC+00:00)

Delta 2 Rocket - Pass Details

Date: 23 May 2024
Orbit: 398 x 674 km, 35.6° (Epoch: 19 June)

Event Time Altitude Azimuth Distance (km) Brightness Sun altitude
Rises 11:11:51 0° 302° (WNW) 2,296 8.5 -10.2°
Reaches altitude 10° 11:13:58 10° 297° (WNW) 1,430 7.0 -10.7°
Maximum altitude 11:17:07 56° 218° (SW) 471 3.1 -11.4°
Enters shadow 11:19:30 16° 142° (SE) 1,119 4.4 -12.0°
